Location: Burland Observatory
(39.4088°N, 105.4217°W)
Time: 00:57:31
(UTC-07:00)

SR - Pass Details

Date: 09 December 2019
Orbit: 574 x 882 km, 66.7° (Epoch: 21 January)

Event Time Altitude Azimuth Distance (km) Brightness Sun altitude
Rises 19:06:22 0° 327° (NNW) 3,471 ? -27.9°
Reaches altitude 10° 19:08:57 10° 323° (NW) 2,511 ? -28.4°
Maximum altitude 19:14:38 55° 247° (WSW) 991 ? -29.4°
Enters shadow 19:16:56 33° 186° (S) 1,346 ? -29.9°
Drops below altitude 10° 19:19:57 10° 170° (S) 2,348 - -30.5°
Sets 19:22:18 0° 166° (SSE) 3,227 - -30.9°
